Crete, North Dakota
Current Conditions -  °F | °C
As of 11:15 PM on Thursday 30 Oct 2014 (Local Time) from KGWR Reporting Station
Clear Clear  
Wind Chill: 20°   Ceiling: Unl
Heat Index: 28°   Visibility: 10mi
Dew Point: 19°   Wind: 9mph
Humidity: 69%   Direction: 360°N
Pressure: 30.56"   Gusts: NA
Location:  46.2395°N, 97.8821°W
Report Text: KGWR 310415Z AUTO 36008KT 10SM CLR M02/M07 A3056 RMK A01 P000
Loading
Personal Weather Stations






























Interactive Weather Map
Tropical Storm Tracking
New forecast layout! Learn more

10-Day Weather Forecast

Advertisements
Track Severe Weather on mobile